• In Hungary
  • List of Countries
  • For 7 days
  • Water Temperature
  • Satellite Maps
  • Weather Map
  • News
  • Weather Widgets
  • user-avatar
    Login

    Hourly Weather San José de Maipo

    Today, 20 June, Wednesday

    Time Temperature Precipitation Wind Pressure Humidity
    00:00 +7°C° 0 mm 2 mps 609 mmHg 20%
    01:00 +5°C° 0 mm 3 mps 609 mmHg 20%
    02:00 +5°C° 0 mm 3 mps 608 mmHg 21%
    03:00 +5°C° 0 mm 3 mps 608 mmHg 22%
    04:00 +5°C° 0 mm 3 mps 608 mmHg 23%
    05:00 +5°C° 0 mm 3 mps 608 mmHg 24%
    06:00 +4°C° 0 mm 3 mps 608 mmHg 24%
    07:00 +4°C° 0 mm 3 mps 608 mmHg 25%
    08:00 +7°C° 0 mm 3 mps 609 mmHg 26%
    09:00 +9°C° 0 mm 2 mps 609 mmHg 28%
    10:00 +12°C° 0 mm 2 mps 610 mmHg 29%
    11:00 +12°C° 0 mm 2 mps 610 mmHg 29%
    12:00 +12°C° 0 mm 2 mps 610 mmHg 30%
    13:00 +12°C° 0 mm 2 mps 609 mmHg 31%
    14:00 +10°C° 0 mm 2 mps 609 mmHg 34%
    15:00 +9°C° 0 mm 2 mps 609 mmHg 38%
    16:00 +8°C° 0 mm 2 mps 609 mmHg 42%
    17:00 +7°C° 0 mm 3 mps 609 mmHg 42%
    18:00 +5°C° 0 mm 3 mps 609 mmHg 43%
    19:00 +3°C° 0 mm 4 mps 609 mmHg 44%
    20:00 +3°C° 0 mm 4 mps 609 mmHg 44%
    21:00 +3°C° 0 mm 4 mps 610 mmHg 44%
    22:00 +3°C° 0 mm 4 mps 610 mmHg 45%
    23:00 +3°C° 0 mm 4 mps 610 mmHg 43%

    Tomorrow, 21 June, Thursday

    Time Temperature Precipitation Wind Pressure Humidity
    00:00 +3°C° 0 mm 4 mps 609 mmHg 41%
    01:00 +1°C° 0 mm 4 mps 609 mmHg 39%
    02:00 +1°C° 0 mm 4 mps 609 mmHg 36%
    03:00 +1°C° 0 mm 4 mps 609 mmHg 32%
    04:00 +3°C° 0 mm 4 mps 609 mmHg 29%
    05:00 +3°C° 0 mm 4 mps 609 mmHg 27%
    06:00 +3°C° 0 mm 4 mps 609 mmHg 24%
    07:00 +3°C° 0 mm 3 mps 609 mmHg 21%
    08:00 +5°C° 0 mm 3 mps 610 mmHg 21%
    09:00 +8°C° 0 mm 2 mps 611 mmHg 21%
    10:00 +12°C° 0 mm 2 mps 612 mmHg 20%
    11:00 +12°C° 0 mm 1 mps 611 mmHg 20%
    12:00 +13°C° 0 mm 1 mps 611 mmHg 21%
    13:00 +14°C° 0 mm 1 mps 611 mmHg 21%
    14:00 +13°C° 0 mm 1 mps 610 mmHg 21%
    15:00 +12°C° 0 mm 1 mps 609 mmHg 22%
    16:00 +10°C° 0 mm 2 mps 609 mmHg 23%
    17:00 +9°C° 0 mm 2 mps 608 mmHg 21%
    18:00 +8°C° 0 mm 2 mps 608 mmHg 19%
    19:00 +7°C° 0 mm 3 mps 608 mmHg 17%
    20:00 +7°C° 0 mm 3 mps 608 mmHg 17%
    21:00 +7°C° 0 mm 3 mps 608 mmHg 16%
    22:00 +5°C° 0 mm 3 mps 607 mmHg 16%
    23:00 +5°C° 0 mm 3 mps 607 mmHg 16%

    Day after tomorrow, 22 June, Friday

    Time Temperature Precipitation Wind Pressure Humidity
    00:00 +5°C° 0 mm 3 mps 607 mmHg 16%
    01:00 +5°C° 0 mm 3 mps 607 mmHg 16%
    02:00 +5°C° 0 mm 3 mps 606 mmHg 16%
    03:00 +4°C° 0 mm 3 mps 606 mmHg 16%
    04:00 +4°C° 0 mm 3 mps 606 mmHg 17%
    05:00 +4°C° 0 mm 3 mps 606 mmHg 17%
    06:00 +4°C° 0 mm 3 mps 605 mmHg 17%
    07:00 +4°C° 0 mm 3 mps 605 mmHg 17%
    08:00 +5°C° 0 mm 3 mps 606 mmHg 18%
    09:00 +8°C° 0 mm 2 mps 606 mmHg 20%
    10:00 +10°C° 0 mm 2 mps 607 mmHg 21%
    11:00 +10°C° 0 mm 2 mps 606 mmHg 22%
    12:00 +10°C° 0 mm 2 mps 606 mmHg 23%
    13:00 +12°C° 0 mm 2 mps 606 mmHg 23%
    14:00 +9°C° 0 mm 2 mps 605 mmHg 27%
    15:00 +8°C° 0 mm 2 mps 605 mmHg 31%
    16:00 +6°C° 0 mm 2 mps 605 mmHg 35%
    17:00 +4°C° 0 mm 3 mps 605 mmHg 38%
    18:00 +3°C° 0 mm 3 mps 605 mmHg 40%
    19:00 +2°C° 0 mm 3 mps 605 mmHg 43%
    20:00 +2°C° 0 mm 3 mps 605 mmHg 42%
    21:00 +1°C° 0 mm 3 mps 605 mmHg 41%
    22:00 +1°C° 0 mm 3 mps 605 mmHg 40%
    23:00 +1°C° 0 mm 3 mps 605 mmHg 41%

    23 June, Saturday

    Time Temperature Precipitation Wind Pressure Humidity
    00:00 0°C° 0 mm 3 mps 605 mmHg 41%
    01:00 0°C° 0 mm 3 mps 605 mmHg 41%
    02:00 -1°C° 0 mm 3 mps 605 mmHg 43%
    03:00 -1°C° 0 mm 3 mps 605 mmHg 45%
    04:00 -2°C° 0 mm 3 mps 605 mmHg 47%
    05:00 -2°C° 0 mm 3 mps 605 mmHg 47%
    06:00 -2°C° 0 mm 3 mps 606 mmHg 48%
    07:00 -2°C° 0 mm 3 mps 606 mmHg 49%
    08:00 0°C° 0 mm 3 mps 607 mmHg 46%
    09:00 +2°C° 0 mm 2 mps 608 mmHg 42%
    10:00 +4°C° 0 mm 2 mps 609 mmHg 38%
    11:00 +5°C° 0 mm 2 mps 609 mmHg 34%
    12:00 +6°C° 0 mm 2 mps 609 mmHg 30%
    13:00 +7°C° 0 mm 2 mps 609 mmHg 26%
    14:00 +6°C° 0 mm 2 mps 609 mmHg 26%
    15:00 +6°C° 0 mm 1 mps 609 mmHg 26%
    16:00 +5°C° 0 mm 1 mps 609 mmHg 27%
    17:00 +4°C° 0 mm 2 mps 609 mmHg 24%
    18:00 +3°C° 0 mm 2 mps 610 mmHg 22%
    19:00 +2°C° 0 mm 2 mps 610 mmHg 20%
    20:00 +2°C° 0 mm 2 mps 610 mmHg 18%
    21:00 +2°C° 0 mm 2 mps 610 mmHg 16%
    22:00 +2°C° 0 mm 2 mps 609 mmHg 14%
    23:00 +2°C° 0 mm 2 mps 609 mmHg 12%

    24 June, Sunday

    Time Temperature Precipitation Wind Pressure Humidity
    00:00 +2°C° 0 mm 2 mps 609 mmHg 10%
    01:00 +2°C° 0 mm 2 mps 609 mmHg 8%
    02:00 +2°C° 0 mm 2 mps 608 mmHg 7%
    03:00 +2°C° 0 mm 2 mps 608 mmHg 6%
    04:00 +2°C° 0 mm 2 mps 607 mmHg 5%
    05:00 +2°C° 0 mm 2 mps 607 mmHg 5%
    06:00 +2°C° 0 mm 2 mps 607 mmHg 5%
    07:00 +3°C° 0 mm 2 mps 607 mmHg 5%
    08:00 +5°C° 0 mm 2 mps 608 mmHg 8%
    09:00 +8°C° 0 mm 1 mps 609 mmHg 11%
    10:00 +11°C° 0 mm 1 mps 609 mmHg 15%
    11:00 +12°C° 0 mm 1 mps 609 mmHg 15%
    12:00 +12°C° 0 mm 1 mps 609 mmHg 16%
    13:00 +13°C° 0 mm 1 mps 608 mmHg 17%
    14:00 +11°C° 0 mm 1 mps 608 mmHg 18%
    15:00 +10°C° 0 mm 1 mps 607 mmHg 19%
    16:00 +9°C° 0 mm 1 mps 607 mmHg 20%
    17:00 +8°C° 0 mm 1 mps 606 mmHg 18%
    18:00 +6°C° 0 mm 2 mps 606 mmHg 15%
    19:00 +5°C° 0 mm 2 mps 606 mmHg 13%
    20:00 +5°C° 0 mm 2 mps 606 mmHg 13%
    21:00 +5°C° 0 mm 2 mps 606 mmHg 14%
    22:00 +5°C° 0 mm 2 mps 606 mmHg 14%
    23:00 +4°C° 0 mm 2 mps 606 mmHg 15%

    25 June, Monday

    Time Temperature Precipitation Wind Pressure Humidity
    00:00 +4°C° 0 mm 2 mps 605 mmHg 16%
    01:00 +4°C° 0 mm 2 mps 605 mmHg 17%
    02:00 +4°C° 0 mm 2 mps 605 mmHg 18%
    03:00 +4°C° 0 mm 2 mps 605 mmHg 19%
    04:00 +4°C° 0 mm 2 mps 605 mmHg 19%
    05:00 +4°C° 0 mm 2 mps 606 mmHg 20%
    06:00 +4°C° 0 mm 2 mps 606 mmHg 20%
    07:00 +3°C° 0 mm 2 mps 606 mmHg 20%
    08:00 +6°C° 0 mm 2 mps 607 mmHg 21%
    09:00 +8°C° 0 mm 2 mps 608 mmHg 22%
    10:00 +11°C° 0 mm 1 mps 609 mmHg 24%
    11:00 +10°C° 0 mm 2 mps 609 mmHg 24%
    12:00 +12°C° 0 mm 2 mps 609 mmHg 24%
    13:00 +12°C° 0 mm 2 mps 609 mmHg 25%
    14:00 +10°C° 0 mm 2 mps 609 mmHg 26%
    15:00 +9°C° 0 mm 2 mps 609 mmHg 28%
    16:00 +9°C° 0 mm 1 mps 608 mmHg 29%
    17:00 +7°C° 0 mm 2 mps 608 mmHg 30%
    18:00 +6°C° 0 mm 2 mps 608 mmHg 31%
    19:00 +4°C° 0 mm 2 mps 608 mmHg 31%
    20:00 +4°C° 0 mm 2 mps 608 mmHg 30%
    21:00 +4°C° 0 mm 2 mps 608 mmHg 29%
    22:00 +4°C° 0 mm 2 mps 608 mmHg 29%
    23:00 +4°C° 0 mm 2 mps 608 mmHg 28%
    Show more